When you browse on this site, cookies collect data to enhance your experience and personalize the content and advertising you see.
Visit our Privacy Policy to learn more. By continuing to use the site, you agree to this use of cookies and data.
  • In Switzerland
  • List of Countries
  • For 7 days
  • Water Temperature
  • Satellite Maps
  • Weather Map
  • Weather Widgets
  • user-avatar
    Login

    Hourly Weather Borken

    Today, 24 May, Friday

    Time Temperature Precipitation Wind Pressure Humidity
    00:00 +11°C° 0 mm 0 mps 758 mmHg 58%
    01:00 +12°C° 0 mm 1 mps 757 mmHg 58%
    02:00 +12°C° 0 mm 1 mps 757 mmHg 59%
    03:00 +12°C° 0 mm 2 mps 757 mmHg 59%
    04:00 +13°C° 0 mm 2 mps 757 mmHg 62%
    05:00 +14°C° 0 mm 2 mps 757 mmHg 64%
    06:00 +15°C° 0 mm 2 mps 757 mmHg 67%
    07:00 +17°C° 0.1 mm 3 mps 757 mmHg 65%
    08:00 +19°C° 0.1 mm 3 mps 757 mmHg 64%
    09:00 +20°C° 0.1 mm 4 mps 757 mmHg 62%
    10:00 +21°C° 0.7 mm 4 mps 757 mmHg 62%
    11:00 +21°C° 0.7 mm 4 mps 756 mmHg 61%
    12:00 +22°C° 0.7 mm 4 mps 756 mmHg 61%
    13:00 +22°C° 0.2 mm 4 mps 756 mmHg 58%
    14:00 +22°C° 0.2 mm 4 mps 756 mmHg 56%
    15:00 +22°C° 0.2 mm 4 mps 756 mmHg 53%
    16:00 +20°C° 0 mm 4 mps 756 mmHg 57%
    17:00 +19°C° 0 mm 4 mps 756 mmHg 62%
    18:00 +17°C° 0 mm 4 mps 756 mmHg 66%
    19:00 +14°C° 0 mm 4 mps 757 mmHg 72%
    20:00 +12°C° 0 mm 3 mps 757 mmHg 79%
    21:00 +10°C° 0 mm 3 mps 757 mmHg 85%
    22:00 +10°C° 0 mm 2 mps 757 mmHg 88%
    23:00 +9°C° 0 mm 2 mps 758 mmHg 91%

    Tomorrow, 25 May, Saturday

    Time Temperature Precipitation Wind Pressure Humidity
    00:00 +9°C° 0 mm 1 mps 758 mmHg 95%
    01:00 +9°C° 0 mm 1 mps 758 mmHg 95%
    02:00 +8°C° 0 mm 2 mps 758 mmHg 96%
    03:00 +7°C° 0 mm 2 mps 758 mmHg 96%
    04:00 +9°C° 0 mm 1 mps 758 mmHg 92%
    05:00 +10°C° 0 mm 1 mps 758 mmHg 88%
    06:00 +11°C° 0 mm 1 mps 758 mmHg 85%
    07:00 +13°C° 0 mm 2 mps 758 mmHg 79%
    08:00 +14°C° 0 mm 2 mps 758 mmHg 74%
    09:00 +15°C° 0 mm 2 mps 758 mmHg 69%
    10:00 +16°C° 0 mm 2 mps 758 mmHg 66%
    11:00 +17°C° 0 mm 2 mps 758 mmHg 64%
    12:00 +17°C° 0 mm 3 mps 757 mmHg 62%
    13:00 +18°C° 0.1 mm 3 mps 757 mmHg 62%
    14:00 +18°C° 0.1 mm 3 mps 757 mmHg 61%
    15:00 +18°C° 0.1 mm 3 mps 757 mmHg 61%
    16:00 +17°C° 0.4 mm 3 mps 757 mmHg 67%
    17:00 +17°C° 0.4 mm 3 mps 757 mmHg 74%
    18:00 +16°C° 0.4 mm 2 mps 757 mmHg 80%
    19:00 +14°C° 0 mm 2 mps 757 mmHg 84%
    20:00 +13°C° 0 mm 2 mps 757 mmHg 87%
    21:00 +12°C° 0 mm 2 mps 757 mmHg 91%
    22:00 +10°C° 0 mm 2 mps 757 mmHg 92%
    23:00 +10°C° 0 mm 2 mps 757 mmHg 93%

    Day after tomorrow, 26 May, Sunday

    Time Temperature Precipitation Wind Pressure Humidity
    00:00 +9°C° 0 mm 2 mps 757 mmHg 94%
    01:00 +9°C° 0 mm 2 mps 757 mmHg 94%
    02:00 +9°C° 0 mm 3 mps 756 mmHg 95%
    03:00 +9°C° 0 mm 3 mps 756 mmHg 95%
    04:00 +9°C° 0 mm 3 mps 756 mmHg 92%
    05:00 +10°C° 0 mm 3 mps 755 mmHg 90%
    06:00 +10°C° 0 mm 3 mps 755 mmHg 88%
    07:00 +11°C° 0.1 mm 4 mps 755 mmHg 89%
    08:00 +12°C° 0.1 mm 4 mps 755 mmHg 89%
    09:00 +13°C° 0.1 mm 5 mps 755 mmHg 89%
    10:00 +14°C° 0.1 mm 5 mps 754 mmHg 89%
    11:00 +15°C° 0.1 mm 5 mps 754 mmHg 88%
    12:00 +16°C° 0.1 mm 5 mps 754 mmHg 87%
    13:00 +16°C° 0.2 mm 5 mps 754 mmHg 85%
    14:00 +17°C° 0.2 mm 5 mps 753 mmHg 83%
    15:00 +17°C° 0.2 mm 5 mps 753 mmHg 81%
    16:00 +17°C° 0.1 mm 5 mps 753 mmHg 83%
    17:00 +16°C° 0.1 mm 5 mps 752 mmHg 85%
    18:00 +15°C° 0.1 mm 5 mps 752 mmHg 88%
    19:00 +15°C° 0.2 mm 6 mps 751 mmHg 88%
    20:00 +14°C° 0.2 mm 6 mps 751 mmHg 89%
    21:00 +14°C° 0.2 mm 6 mps 751 mmHg 89%
    22:00 +14°C° 0.4 mm 6 mps 751 mmHg 91%
    23:00 +14°C° 0.4 mm 6 mps 751 mmHg 93%

    27 May, Monday

    Time Temperature Precipitation Wind Pressure Humidity
    00:00 +14°C° 0.4 mm 6 mps 750 mmHg 94%
    01:00 +13°C° 0.1 mm 6 mps 750 mmHg 94%
    02:00 +13°C° 0.1 mm 5 mps 750 mmHg 94%
    03:00 +13°C° 0.1 mm 5 mps 749 mmHg 95%
    04:00 +13°C° 0 mm 5 mps 750 mmHg 92%
    05:00 +13°C° 0 mm 5 mps 750 mmHg 90%
    06:00 +11°C° 0 mm 6 mps 750 mmHg 88%
    07:00 +13°C° 0.1 mm 6 mps 751 mmHg 85%
    08:00 +13°C° 0.1 mm 5 mps 751 mmHg 81%
    09:00 +14°C° 0.1 mm 5 mps 751 mmHg 78%
    10:00 +14°C° 0.1 mm 6 mps 751 mmHg 71%
    11:00 +15°C° 0.1 mm 6 mps 751 mmHg 65%
    12:00 +16°C° 0.1 mm 7 mps 752 mmHg 59%
    13:00 +16°C° 0.1 mm 7 mps 752 mmHg 59%
    14:00 +16°C° 0.1 mm 6 mps 751 mmHg 59%
    15:00 +15°C° 0.1 mm 6 mps 751 mmHg 59%
    16:00 +15°C° 0 mm 5 mps 751 mmHg 62%
    17:00 +14°C° 0 mm 4 mps 751 mmHg 66%
    18:00 +14°C° 0 mm 3 mps 751 mmHg 70%
    19:00 +13°C° 0 mm 3 mps 751 mmHg 72%
    20:00 +12°C° 0 mm 3 mps 751 mmHg 73%
    21:00 +12°C° 0 mm 2 mps 751 mmHg 75%
    22:00 +12°C° 0 mm 2 mps 751 mmHg 77%
    23:00 +10°C° 0 mm 2 mps 751 mmHg 78%

    28 May, Tuesday

    Time Temperature Precipitation Wind Pressure Humidity
    00:00 +10°C° 0 mm 2 mps 751 mmHg 80%
    01:00 +10°C° 0.2 mm 2 mps 751 mmHg 84%
    02:00 +10°C° 0.2 mm 2 mps 751 mmHg 88%
    03:00 +10°C° 0.2 mm 2 mps 751 mmHg 92%
    04:00 +10°C° 0.3 mm 2 mps 751 mmHg 92%
    05:00 +10°C° 0.3 mm 3 mps 751 mmHg 92%
    06:00 +11°C° 0.3 mm 3 mps 751 mmHg 92%
    07:00 +11°C° 0.3 mm 3 mps 751 mmHg 91%
    08:00 +11°C° 0.3 mm 3 mps 752 mmHg 91%
    09:00 +11°C° 0.3 mm 3 mps 752 mmHg 91%
    10:00 +12°C° 0.1 mm 4 mps 752 mmHg 85%
    11:00 +12°C° 0.1 mm 4 mps 752 mmHg 79%
    12:00 +13°C° 0.1 mm 5 mps 753 mmHg 73%
    13:00 +13°C° 0 mm 5 mps 753 mmHg 71%
    14:00 +13°C° 0 mm 5 mps 754 mmHg 69%
    15:00 +13°C° 0 mm 5 mps 754 mmHg 67%
    16:00 +12°C° 0 mm 5 mps 754 mmHg 67%
    17:00 +12°C° 0 mm 5 mps 755 mmHg 66%
    18:00 +11°C° 0 mm 4 mps 756 mmHg 66%
    19:00 +10°C° 0 mm 4 mps 756 mmHg 69%
    20:00 +9°C° 0 mm 3 mps 757 mmHg 73%
    21:00 +7°C° 0 mm 3 mps 757 mmHg 76%
    22:00 +5°C° 0 mm 3 mps 758 mmHg 79%
    23:00 +6°C° 0 mm 2 mps 758 mmHg 82%

    29 May, Wednesday

    Time Temperature Precipitation Wind Pressure Humidity
    00:00 +5°C° 0 mm 2 mps 758 mmHg 85%
    01:00 +5°C° 0 mm 2 mps 758 mmHg 87%
    02:00 +4°C° 0 mm 2 mps 758 mmHg 89%
    03:00 +5°C° 0 mm 1 mps 758 mmHg 91%
    04:00 +6°C° 0 mm 1 mps 758 mmHg 86%
    05:00 +8°C° 0 mm 1 mps 758 mmHg 81%
    06:00 +9°C° 0 mm 1 mps 759 mmHg 75%
    07:00 +9°C° 0 mm 2 mps 758 mmHg 69%
    08:00 +12°C° 0 mm 2 mps 758 mmHg 62%
    09:00 +13°C° 0 mm 2 mps 758 mmHg 56%
    10:00 +13°C° 0 mm 3 mps 758 mmHg 54%
    11:00 +13°C° 0 mm 3 mps 758 mmHg 53%
    12:00 +14°C° 0 mm 3 mps 757 mmHg 51%
    13:00 +14°C° 0.1 mm 4 mps 757 mmHg 53%
    14:00 +14°C° 0.1 mm 4 mps 757 mmHg 54%
    15:00 +15°C° 0.1 mm 5 mps 757 mmHg 55%
    16:00 +14°C° 0.2 mm 4 mps 756 mmHg 60%
    17:00 +14°C° 0.2 mm 4 mps 756 mmHg 66%
    18:00 +13°C° 0.2 mm 3 mps 756 mmHg 72%
    19:00 +12°C° 0 mm 3 mps 756 mmHg 73%
    20:00 +10°C° 0 mm 3 mps 757 mmHg 74%
    21:00 +9°C° 0 mm 2 mps 757 mmHg 75%
    22:00 +9°C° 0 mm 3 mps 757 mmHg 76%
    23:00 +9°C° 0 mm 3 mps 756 mmHg 78%
    Show more